Theta_e
321 320 319 320 320 319 317 315 312 307 309 310 309 307 303 300 299 299 299 297 302 304 305 306 306 307 308 311 309 308 307 307 305 303 301 301 300 299
322 321 320 320 320 319 318 318 317 314 310 311 309 306 298 296 295 296 296 295 299 302 303 303 304 305 307 308 307 306 306 306 304 303 302 301 300 300
322 321 320 321 319 319 319 318 316 316 312 314 307 298 295 294 293 293 293 293 294 296 298 300 301 304 305 304 305 304 304 304 303 302 301 300 300 299
320 320 319 319 318 319 318 316 316 316 313 311 299 292 293 291 291 290 291 292 292 294 296 297 299 302 303 304 303 302 302 302 301 300 299 299 299 299
320 318 318 317 316 317 316 315 315 314 314 311 303 289 288 288 287 287 288 288 290 292 295 296 298 300 301 302 301 301 299 299 299 298 297 296 296 296
319 318 317 316 316 315 314 313 313 311 310 305 289 287 287 286 286 285 285 285 285 289 292 292 294 296 298 301 300 298 298 298 298 297 296 295 295 295
314 315 315 310 302 309 313 312 310 306 291 290 287 286 285 284 285 285 285 284 285 285 286 286 286 288 293 297 293 295 297 297 297 296 295 295 294 294
311 309 298 291 296 297 299 301 304 302 292 290 288 287 286 286 285 285 284 283 283 285 285 284 286 286 286 288 293 294 295 295 295 294 294 294 294 293
302 297 292 292 292 293 294 294 292 296 296 293 288 288 286 286 286 285 284 284 284 284 284 283 285 285 286 287 293 294 294 294 294 294 293 293 292 292
294 292 291 290 291 291 289 288 287 287 288 288 288 287 287 287 287 286 286 284 284 284 284 282 284 284 285 286 291 293 293 293 293 292 292 292 292 291
288 289 290 289 291 292 287 286 285 285 290 292 291 292 291 290 288 286 284 284 282 282 284 283 282 283 280 279 281 291 291 291 291 292 291 291 290 290
285 286 287 289 291 292 287 286 285 285 286 286 286 288 288 289 289 286 286 285 283 281 281 279 277 278 277 277 280 281 282 288 289 289 289 289 289 283
285 285 286 291 291 291 290 287 286 286 287 285 285 285 285 284 284 285 285 285 283 282 283 280 276 276 273 275 278 279 280 281 281 282 285 286 286 285
285 285 286 290 291 291 288 290 289 286 285 285 284 283 283 283 283 283 284 284 283 281 283 281 277 277 273 273 275 278 278 278 280 280 280 283 284 284
286 287 290 290 290 290 290 289 285 285 285 283 282 281 281 282 282 282 282 283 283 283 283 282 281 281 280 279 274 275 278 278 277 277 277 278 278 278
288 287 287 286 287 286 285 285 284 284 284 282 281 280 281 281 281 281 280 280 279 280 282 283 282 281 279 278 278 275 275 275 275 275 276 275 277 278
285 285 283 282 282 282 282 282 282 282 281 281 280 280 280 280 279 280 280 279 277 278 279 280 282 282 281 279 273 274 274 273 274 275 272 273 273 275
283 282 280 280 280 280 279 279 280 280 280 281 280 280 279 278 278 279 278 277 277 277 277 278 278 277 277 274 280 272 270 271 272 273 272 272 268 272
280 279 278 278 277 277 277 277 276 277 277 278 278 278 278 278 277 277 277 276 275 276 277 278 278 275 270 268 270 280 276 274 269 267 268 267 267 270
275 275 276 276 276 276 276 276 276 276 277 277 277 276 276 277 276 276 277 276 276 276 275 273 271 269 268 267 265 270 277 268 266 264 265 266 269 275
270 270 270 270 271 271 271 272 273 273 273 273 273 274 275 275 274 274 274 274 271 268 267 269 271 272 270 268 266 264 267 276 272 266 265 262 262 264
266 267 267 268 268 268 269 269 270 270 270 269 269 270 270 270 269 268 268 268 267 267 267 269 269 268 267 267 264 262 264 265 269 273 274 272 264 260
264 265 265 265 266 266 266 266 266 267 268 268 268 268 268 268 268 269 268 266 266 265 265 265 267 268 267 266 264 261 259 259 261 262 263 272 273 274
Wind_Speed
16 16 14 13 11 11 11 10 10 8 9 6 6 8 4 4 6 7 7 8 14 15 18 16 17 18 21 18 16 15 12 12 12 13 11 10 12 12
12 16 15 12 12 10 10 9 10 11 11 4 6 5 4 2 2 3 3 4 8 12 14 12 16 17 17 16 16 15 15 14 13 14 13 12 12 13
14 14 15 13 10 9 9 9 10 9 12 8 3 2 3 3 3 2 3 3 3 7 11 13 15 15 14 15 16 14 14 14 13 14 12 11 13 12
14 13 13 9 12 11 9 11 11 10 9 14 3 3 2 2 3 3 2 2 2 6 10 13 14 12 11 14 15 12 13 14 11 13 12 10 13 13
13 12 13 12 13 10 11 11 10 9 9 9 4 1 2 2 2 3 2 2 2 6 8 7 10 10 10 16 15 13 13 14 13 13 13 10 15 16
13 13 13 13 14 13 12 13 11 10 9 5 2 3 2 2 2 3 2 1 1 3 4 3 4 7 8 17 16 14 12 14 15 14 10 14 17 17
10 11 13 13 15 15 9 10 9 6 3 3 3 2 3 3 4 3 2 2 1 1 2 1 1 0 4 8 7 9 11 15 14 12 11 14 17 17
9 8 4 4 4 5 6 7 8 7 5 4 4 4 4 4 3 4 3 2 3 2 3 2 3 3 2 2 10 11 12 11 12 13 13 15 17 17
5 5 4 2 5 5 8 10 9 8 2 5 4 4 4 6 6 5 3 3 2 2 3 1 2 4 3 4 12 13 13 14 14 15 15 14 15 15
2 5 6 6 6 7 6 6 6 5 4 2 4 4 3 8 6 4 5 5 3 2 1 2 2 3 3 3 13 15 14 15 14 14 13 13 12 12
2 2 5 6 9 12 8 8 5 4 6 9 12 11 12 13 9 7 5 6 2 2 3 2 1 1 1 1 2 9 11 12 12 9 8 8 9 9
1 2 6 7 11 13 9 9 8 6 7 6 5 9 8 8 8 3 6 6 4 2 4 3 2 2 1 1 1 2 3 4 5 6 6 6 6 1
4 2 1 10 11 12 11 7 6 9 10 7 7 6 5 4 3 3 4 3 2 1 4 3 2 2 2 1 0 1 2 2 2 1 1 3 4 4
5 3 3 9 10 11 7 13 17 11 7 7 6 5 5 4 3 4 5 5 4 3 4 3 3 3 3 1 1 1 0 1 2 1 1 2 4 6
4 7 11 12 13 11 16 16 9 5 6 6 6 4 2 4 5 3 4 5 4 3 2 2 2 3 2 2 3 2 1 1 2 2 1 2 1 0
10 7 9 10 9 8 7 6 3 2 4 5 5 5 4 3 3 2 2 2 2 2 2 4 4 4 2 2 3 2 2 1 1 1 1 1 2 2
8 5 6 4 4 5 5 5 4 3 4 4 5 4 4 3 2 1 2 2 2 3 2 1 2 3 2 3 1 2 2 2 2 2 2 1 2 2
4 5 5 4 4 4 4 5 5 5 2 3 3 4 4 3 2 2 1 2 2 2 2 2 2 2 2 4 7 3 1 2 1 2 2 1 3 3
6 5 6 6 5 5 4 5 4 3 2 3 3 2 3 2 3 2 1 1 1 2 2 2 2 2 3 3 3 2 3 2 2 2 2 2 3 3
7 6 6 6 5 5 4 4 3 2 2 2 2 2 2 2 2 2 3 2 2 2 2 1 2 3 4 4 3 2 3 3 3 2 2 1 4 12
8 8 7 7 6 6 6 5 4 3 3 3 2 1 1 1 1 1 1 3 3 2 3 2 3 4 3 3 1 2 3 0 5 4 3 2 2 3
7 8 8 7 7 6 5 4 4 4 4 3 3 3 3 2 1 1 1 1 2 2 2 1 2 2 2 4 3 3 2 2 2 5 6 6 4 3
7 6 6 6 5 6 6 5 5 4 4 4 3 3 3 2 2 3 3 2 1 1 2 1 1 1 2 3 4 3 2 2 1 2 3 9 12 15
Wind_Direction
226 227 226 230 229 228 228 222 222 246 250 217 224 216 220 195 203 197 212 201 213 227 227 227 235 236 237 223 208 208 205 216 203 207 208 221 239 249
228 232 230 231 235 230 228 227 228 239 258 188 215 200 156 116 118 135 133 172 218 223 230 226 235 237 232 219 213 209 216 220 208 212 212 224 238 251
228 231 232 227 228 225 223 227 229 224 245 247 206 142 171 145 144 126 143 167 206 221 240 246 245 235 214 222 219 208 215 211 213 211 215 227 240 249
232 229 231 223 226 225 219 220 224 217 230 251 185 168 154 102 143 147 175 160 190 220 236 236 235 229 215 210 199 208 204 202 205 214 223 230 249 260
226 222 229 221 226 227 224 226 228 233 230 235 193 92 105 133 125 106 153 203 172 220 230 247 230 224 215 195 198 194 197 189 192 207 218 239 255 264
224 224 226 227 229 228 228 228 230 228 222 203 132 148 138 140 132 154 177 160 182 203 227 236 253 221 231 214 197 189 192 188 199 215 220 244 254 259
220 220 223 219 221 226 230 226 223 217 158 155 140 117 159 159 184 154 120 136 176 174 154 177 116 48 195 191 151 166 188 195 200 213 223 243 254 259
229 225 172 162 174 185 209 219 195 187 183 154 163 181 173 161 140 146 128 150 212 177 136 224 170 181 186 165 178 178 180 203 217 231 237 247 255 259
232 186 174 160 135 119 91 80 64 62 80 154 164 183 151 169 132 143 144 144 158 148 127 188 174 217 183 212 213 214 219 231 238 241 242 248 258 263
173 182 169 167 172 142 128 94 83 68 60 101 131 156 136 141 146 155 139 106 78 90 147 169 157 215 181 195 229 232 230 232 237 238 243 252 260 265
92 137 155 159 168 157 134 128 108 90 89 97 109 111 121 132 137 125 143 142 115 176 192 157 179 149 31 310 242 237 234 234 230 232 241 246 254 266
116 149 168 159 162 162 148 148 142 146 129 101 85 92 94 125 130 85 151 152 125 159 210 149 126 120 12 345 30 65 71 183 192 205 227 247 267 280
158 168 191 161 163 165 157 161 160 144 132 119 113 109 104 98 97 89 81 109 124 165 165 124 127 106 94 133 36 147 156 138 128 88 360 319 317 310
163 150 152 152 146 143 137 141 137 128 129 130 128 125 120 106 80 78 81 82 71 103 133 93 135 146 136 100 128 13 308 203 131 150 171 297 325 332
135 138 139 138 130 124 131 130 126 136 139 139 135 121 109 110 104 83 75 91 93 90 101 124 131 123 92 121 154 173 108 289 177 148 212 225 233 278
129 115 114 106 99 98 98 91 79 95 130 129 119 111 113 113 121 135 131 123 115 120 122 136 124 117 150 186 146 200 185 196 97 158 202 236 213 241
119 111 115 112 111 103 93 92 86 80 103 113 123 125 126 115 112 127 143 148 139 145 145 141 137 142 144 146 193 222 195 216 222 172 123 296 290 260
102 120 108 98 96 93 98 93 76 77 58 108 122 128 137 141 140 147 142 132 143 137 125 141 131 94 35 309 210 179 195 183 191 136 97 179 291 287
98 89 91 88 82 75 72 73 73 56 38 53 87 104 121 121 147 146 145 126 134 134 159 153 151 144 157 204 278 27 190 147 96 24 131 175 233 263
51 55 66 71 76 77 77 78 85 71 56 67 79 89 110 129 159 172 171 176 175 164 156 169 160 166 162 199 204 243 57 141 158 186 223 271 259 278
33 44 41 44 50 48 44 44 48 53 54 42 22 52 73 109 164 196 185 176 144 143 183 209 219 137 111 79 30 304 288 46 157 163 173 155 269 302
26 30 26 31 31 28 33 35 45 45 36 38 19 13 4 10 340 305 263 205 205 192 224 205 136 125 146 179 212 220 262 310 320 323 276 227 167 261
24 24 23 24 22 20 23 22 21 25 21 13 359 352 356 338 343 318 297 270 248 226 186 227 251 241 209 197 193 208 225 266 253 313 289 267 275 269